Regional Weather Roundup
Issued by NWS Austin/San Antonio, TX

Home | Current Version | Previous Version | Text Only | Print | Product List | Glossary On
Versions: 1 2 3 4 5 6 7 8 9 10 11 12 13 14 15 16 17 18 19 20 21 22 23 24 25 26 27 28 29 30 31 32 33 34 35 36 37 38 39 40 41 42 43 44 45 46 47 48 49 50
169
ASUS44 KEWX 240802
RWREWX
SOUTH TEXAS REGIONAL WEATHER ROUNDUP
NATIONAL WEATHER SERVICE AUSTIN/SAN ANTONIO TX
300 AM CDT SUN JUN 24 2018

NOTE: "FAIR" INDICATED FEW OR NO CLOUDS BELOW 12,000 FEET WITH NO
SIGNIFICANT WEATHER AND/OR OBSTRUCTIONS TO VISIBILITY.

* - THESE STATIONS ARE NOT NWS OR FAA STATIONS...AND ARE NOT SUBJECT
    TO NWS AND FAA QUALITY CONTROL.

TXZ171-172-183>190-240900-
TEXAS HILL COUNTRY AND EDWARDS PLATEAU

CITY           SKY/WX    TMP DP  RH WIND       PRES   REMARKS
JUNCTION       CLOUDY    83  74  74 SE9       29.88S
*LLANO         CLOUDY    82  73  74 SE7       29.88F
BURNET         CLOUDY    79  73  82 S8        29.88F
*HORSESHOE BAY CLOUDY    80  72  76 S10G20    29.87F
*KERRVILLE     MOCLDY    79  73  81 SE12      29.91F
*FREDERICKSBRG CLOUDY    78  71  80 SE9       29.90F
*ROCKSPRINGS   CLOUDY    79  72  78 SE14G22   29.93S
*BOERNE STAGE  CLOUDY    77  72  83 SE6       29.93S
*CASTROVILLE   CLOUDY    79  71  74 SE8       29.89R
HONDO          CLOUDY    81  75  82 SE12      29.88R
*UVALDE        MOCLDY    80  74  82 E8        29.86R
DEL RIO        CLOUDY    87  74  64 E18G29    29.77R HX  95
LAUGHLIN AFB   CLOUDY    86  72  63 SE21G26   29.78R HX  92
CARRIZO SPRGS  CLEAR     81  70  69 SE12G20   29.78F
*EAGLE PASS      N/A    N/A N/A N/A MISG        N/A
*FAITH RANCH   CLEAR     82  72  69 SE13G22   29.79S
$$

TXZ173-191>194-202-209-217>225-228-240900-
CENTRAL AND SOUTH CENTRAL TEXAS

CITY           SKY/WX    TMP DP  RH WIND       PRES   REMARKS
GEORGETOWN     CLOUDY    80  72  76 S16G23    29.89F
AUSTIN/BERGSTM CLOUDY    80  74  81 S7        29.90S
AUSTIN/MABRY   CLOUDY    80  72  76 S6        29.90F
*AUSTIN/EXEC   CLOUDY    79  75  89 S7        29.89F
*LAGO VISTA    CLOUDY    78  73  84 S7        29.90F
SAN MARCOS     CLOUDY    80  75  84 S3        29.91R
NEW BRAUNFELS  CLOUDY    80  74  81 S8        29.88R
RANDOLPH AFB   MOCLDY    79  74  83 S8        29.89R
PT SAN ANTONIO PTCLDY    80  73  80 SE9       29.86R
SAN ANTONIO    CLOUDY    79  72  79 SE12G18   29.90R
STINSON FIELD  MOCLDY    81  75  82 SE8       29.86R
*LA GRANGE     CLOUDY    79  78  96 CALM      29.87S
*GIDDINGS      CLOUDY    78  74  87 S6        29.92R
*GONZALES      CLOUDY    79  77  93 S6        29.87S
$$

TXZ163>164-176>182-195>201-210>213-226-227-235-240900-
SOUTHEAST TEXAS

CITY           SKY/WX    TMP DP  RH WIND       PRES   REMARKS
COLLEGE STN    CLOUDY    80  77  90 S8        29.91R
*BRYAN         CLOUDY    79  78  95 S8        29.92S
*CALDWELL      CLOUDY    80  75  85 S8        29.91S
*CROCKETT      CLOUDY    77  75  94 S6        29.94R
*BRENHAM       CLOUDY    80  78  96 CALM      29.92R
HUNTSVILLE     CLOUDY    79  74  84 S9        29.91S
CONROE         CLOUDY    80  77  90 S6        29.91S
HOUSTON BUSH   FAIR      81  77  88 S8        29.89F
HOUSTON HOBBY  FAIR      81  79  94 S8        29.88F HX  90
*HOUSTON SW AP FAIR      76  75  97 S5        29.89F
PEARLAND       FAIR      81  78  91 S8        29.91F
HOUSTON HOOKS  FAIR      80  76  87 S6        29.90S
ELLINGTON FLD  NOT AVBL
SUGAR LAND     FAIR      80  76  87 S9        29.88F
*HOUSTON EXEC    N/A    N/A N/A N/A MISG        N/A
*CLEVELAND MUN FAIR      76  74  92 CALM      29.91S FOG
*WHARTON       PTCLDY    78  74  89 S6        29.89F
*COLUMBUS      CLOUDY    79  77  94 S7        29.89S
*EAGLE LAKE    CLOUDY    79  78  96 S6        29.89S
$$

TXZ214>216-236>238-240900-
THE UPPER TEXAS COAST

CITY           SKY/WX    TMP DP  RH WIND       PRES   REMARKS
*ORANGE        MOCLDY    82  78  88 S13       29.94S HX  91
PORT ARTHUR    FAIR      81  75  82 S15       29.92R
GALVESTON      MOCLDY    83  78  85 S14       29.92R HX  93
ANGLETON       FAIR      81  76  84 S10       29.90S
*BAY CITY      PTCLDY    81  77  86 S9        29.89F
PALACIOS       PTCLDY    83  79  88 S14       29.88F HX  94
$$

TXZ229>234-239>247-240900-
TEXAS COASTAL BEND AND RIO GRANDE PLAINS

CITY           SKY/WX    TMP DP  RH WIND       PRES   REMARKS
VICTORIA       MOCLDY    81  76  84 S16       29.86F
*BEEVILLE      MOCLDY    79  76  90 S16G22    29.85S
ROCKPORT       MOCLDY    82  76  81 S14G22    29.86F
*PORT ARANSAS  CLOUDY    83  77  84 S16G28    29.87F HX  91
*PORT LAVACA   PTCLDY    80  76  86 S8        29.88F
*INGLESIDE       N/A    N/A N/A N/A S14G24    29.86S
CORPUS CHRISTI PTCLDY    80  79  96 S15G24    29.85S
CORPUS NAS     CLEAR     84  78  82 S17G26    29.85S HX  95
*ROBSTOWN      MOCLDY    80  76  87 S14G22    29.85F
ALICE          MOCLDY    81  75  82 S15       29.84S
KINGSVILLE NAS PTCLDY    82  77  84 SE13      29.84S HX  90
COTULLA        PTCLDY    79  75  87 SE18G26   29.80F
LAREDO         CLEAR     81  73  76 SE20G29   29.79F
$$

TXZ248>255-240900-
DEEP SOUTH TEXAS

CITY           SKY/WX    TMP DP  RH WIND       PRES   REMARKS
BROWNSVILLE    FAIR      82  78  88 S10       29.86S HX  91
PORT ISABEL    FAIR      81  76  84 S12       29.84F
*SOUTH PADRE   NOT AVBL
HARLINGEN      PTCLDY    81  78  91 S16       29.84F
*HEBBRONVILLE  PTCLDY    78  72  81 S13G18    29.85F
MCALLEN        PTCLDY    83  79  88 SE14      29.83F HX  94
*WESLACO       NOT AVBL
FALFURRIAS     MOCLDY    81  76  85 SE10      29.83S
EDINBURG       MOCLDY    82  76  82 SE14      29.83F
*ZAPATA        FAIR      80  72  77 SE9G17    29.80S
$$

TXZ213>215-236>238-242>244-246-247-251-254-255-240900-
CMAN STATIONS

STATION/POSITION TIME  TEMP    WIND        PRES    WAVE
                       AIR SEA DIR/SP/G            HT/PER
                 (UTC) (F)     (DEG/KT/KT) (MB)    (FT/S)
SABINE PASS      0724   83 87  190/ 13/ 19 1014.7
SEA RIM ST PARK  0700   83     190/ 16/ 20 1013.4
NORTH JETTY/GLS  0724   83 84  190/ 19/ 22 1012.4
EAGLE POINT      0724   83 84  200/ 17/ 23 1012.8
MORGANS POINT    0724   83 84  180/  6/ 12 1012.7
MISSION/ARANSAS  0700          150/ 12     1012.0
PORT O`CONNOR    0724   83 84  170/ 17/ 22 1011.5
PORT ARANSAS     0700   83 84  160/ 25/ 28 1010.7
MALAQUITE BEACH  0724   83 84  140/ 23/ 27 1010.2
BAFFIN BAY       0724   82 84  140/ 19/ 23 1011.1
PORT ISABEL      0724   81 85  160/ 13/ 16 1011.1
$$




USA.gov is the U.S. government's official web portal to all federal, state and local government web resources and services.